Flag for South Africa Weather past 2 weeks in Vereeniging, South Africa

Now
46 °F

Cool.


Feels Like: N/A
Forecast: 46 / 78 °F
Wind: N/A

Location: Vereeniging

Current Time: Apr 28, 2015 at 4:48:55 AM

Latest Report: Apr 28, 2015 at 4:00 AM


Visibility: N/A

Pressure: 30.18 "Hg

Humidity: 82%

Dew point: 41 °F

Location of VereenigingLocation

Historic Weather in Vereeniging — Graph

°F

Vereeniging temperature yesterday

Maximum temperature yesterday: 77 °F (at 1:00 PM)
Minimum temperature yesterday: 48 °F (at 6:00 AM)
Average temperature yesterday: 60 °F

Past Weeks' High & Low Weather Summary

 TemperatureHumidityPressure
High79 °F (Apr 14, 2:00 PM)94% (Apr 13, 7:00 AM)30.48 "Hg (Apr 13, 7:00 AM)
Low36 °F (Apr 16, 6:00 AM)11% (Apr 15, 4:00 PM)30.01 "Hg (Apr 15, 2:00 PM)
Average59 °F61%30.26 "Hg
* Reported Apr 13 4:00 AM — Apr 28 4:00 AM, Vereeniging, Weather by CustomWeather, © 2015

Note: Actual official high and low records may vary slightly from our data, if they occured in-between our weather recording intervals... More about our weather records

Advertising

Vereeniging weather history for previous 24 hours

 ConditionsComfort  
Time TempWeatherWind HumidityBarometerVisibility
4:00 AM
Tue, Apr 28
46 °FCool.N/A82%30.18 "HgN/A
3:00 AM48 °FCool.N/A76%30.18 "HgN/A
1:00 AM48 °FCool.N/A82%30.21 "HgN/A
12:00 AM50 °FCool.N/A71%30.21 "HgN/A
11:00 PM
Mon, Apr 27
52 °FCool.N/A67%30.21 "HgN/A
10:00 PM50 °FCool.N/A76%30.21 "HgN/A
9:00 PM52 °FCool.N/A77%30.18 "HgN/A
8:00 PM54 °FCool.N/A72%30.21 "HgN/A
7:00 PM55 °FCool.N/A63%30.18 "HgN/A
6:00 PM64 °FMild.N/A43%30.15 "HgN/A
5:00 PM66 °FMild.N/A40%30.15 "HgN/A
4:00 PM66 °FMild.N/A40%30.15 "HgN/A
3:00 PM77 °FPleasantly warm.N/A21%30.12 "HgN/A
2:00 PM77 °FPleasantly warm.N/A22%30.15 "HgN/A
1:00 PM77 °FPleasantly warm.N/A19%30.15 "HgN/A
12:00 PM75 °FMild.N/A25%30.21 "HgN/A
11:00 AM73 °FMild.N/A31%30.21 "HgN/A
10:00 AM70 °FMild.N/A40%30.24 "HgN/A
9:00 AM64 °FMild.N/A52%30.24 "HgN/A
8:00 AM55 °FCool.N/A72%30.24 "HgN/A
7:00 AM48 °FCool.N/A82%30.24 "HgN/A
6:00 AM48 °FCool.N/A82%30.21 "HgN/A
5:00 AM50 °FCool.N/A76%30.21 "HgN/A
4:00 AM52 °FCool.N/A88%30.21 "HgN/A
Weather by CustomWeather, © 2015

See weather overviewHow to use our weather pages